Location: Rio Negrinho
(26.2394°S, 49.4999°W)
Time: 13:27:07
(UTC+00:00)

NOAA 6 - Pass Details

Date: 03 October 2020
Orbit: 773 x 786 km, 98.7° (Epoch: 26 October)

Event Time Altitude Azimuth Distance (km) Brightness Sun altitude
Rises 21:33:12 0° 178° (S) 3,275 7.3 -4.0°
Reaches altitude 10° 21:35:37 10° 184° (S) 2,342 6.7 -4.5°
Maximum altitude 21:40:27 42° 253° (WSW) 1,109 5.6 -5.6°
Drops below altitude 10° 21:45:15 10° 323° (NW) 2,322 6.9 -6.6°
Sets 21:47:39 0° 330° (NNW) 3,244 7.6 -7.2°
